Regional Weather Roundup
Issued by NWS

Home | Current Version | Previous Version | Graphics & Text | Print | Product List | Glossary On
Versions: 1 2 3 4 5 6 7 8 9 10 11 12 13 14 15 16 17 18 19 20 21 22 23 24 25 26 27 28 29 30 31 32 33 34 35 36 37 38 39 40 41 42 43 44 45 46 47 48 49 50
000
ASUS45 KPSR 260610
RWRAZ

ARIZONA REGIONAL HOURLY WEATHER ROUNDUP
NATIONAL WEATHER SERVICE PHOENIX AZ
1100 PM MST THU DEC 25 2014

NOTE: FAIR INDICATES FEW OR NO CLOUDS BELOW 12,000 FEET WITH NO
SIGNIFICANT WEATHER AND/OR OBSTRUCTIONS TO VISIBILITY.

AZZ001>003-036-260700-
NORTHWEST ARIZONA

CITY           SKY/WX    TMP DP  RH WIND       PRES   REMARKS
BULLHEAD CITY  CLEAR     46  18  31 N6        29.90R
KINGMAN        CLEAR     25  16  68 S3        29.85R
6HR MIN TEMP:  22; 6HR MAX TEMP:  42;

$$

AZZ004>008-015-016-018-260700-
NORTH CENTRAL ARIZONA

CITY           SKY/WX    TMP DP  RH WIND       PRES   REMARKS
GRAND CANYON   PTCLDY    19  16  88 CALM      29.73R
6HR MIN TEMP:  18; 6HR MAX TEMP:  27;

PRESCOTT       CLEAR     28   4  35 W8        29.78R WCI  20
6HR MIN TEMP:  26; 6HR MAX TEMP:  38;

FLAGSTAFF      CLEAR     16   5  62 SW5       29.70S WCI   9
6HR MIN TEMP:  16; 6HR MAX TEMP:  28; 6HR PCP: TRACE;

PAYSON         MOCLDY    32   7  34 NW10      29.76S WCI  24
PAGE           PTCLDY    32  13  45 W7        29.73R WCI  26
6HR MIN TEMP:  32; 6HR MAX TEMP:  40;

$$

AZZ009>014-017-260700-
NORTHEAST ARIZONA

CITY           SKY/WX    TMP DP  RH WIND       PRES   REMARKS
WINSLOW        MOCLDY    29   8  41 W6        29.75R WCI  23
6HR MIN TEMP:  29; 6HR MAX TEMP:  41;

SAINT JOHNS    MOCLDY    30  24  78 W13       29.72S WCI  20
6HR MIN TEMP:  30; 6HR MAX TEMP:  35; 6HR PCP: TRACE;

WINDOW ROCK    CLOUDY    20  16  84 N3        29.70R
6HR MIN TEMP:  16; 6HR MAX TEMP:  29; 6HR PCP:  0.06;

SHOW LOW       MOCLDY    23  19  86 CALM      29.75S
$$

AZZ023-260700-
GREATER PHOENIX AREA

CITY           SKY/WX    TMP DP  RH WIND       PRES   REMARKS
PHOENIX        CLEAR     47  18  31 SW8       29.81R
6HR MIN TEMP:  47; 6HR MAX TEMP:  60;

BUCKEYE          N/A     41  14  33 NW8       29.85R
LUKE AFB       CLEAR     49  10  20 W8        29.81R
6HR MIN TEMP:  49; 6HR MAX TEMP:  60;

DEER VALLEY    CLEAR     45   9  23 W8        29.80R
6HR MIN TEMP:  45; 6HR MAX TEMP:  57;

SCOTTSDALE     CLEAR     46  17  31 W6        29.81R
6HR MIN TEMP:  46; 6HR MAX TEMP:  57;

MESA-GATEWAY   CLEAR     45  21  39 W8        29.82R
$$

AZZ027-028-260700-
SOUTHWEST MARICOPA COUNTY AND PINAL COUNTY

CITY           SKY/WX    TMP DP  RH WIND       PRES   REMARKS
CASA GRANDE    PTCLDY    45  19  36 CALM      29.84R
6HR MIN TEMP:  45; 6HR MAX TEMP:  59;

GILA BEND      FAIR      44  19  37 SW3       29.87R
6HR MIN TEMP:  44; 6HR MAX TEMP:  61;

$$

AZZ503-504-507>509-260700-
SOUTHEAST ARIZONA

CITY           SKY/WX    TMP DP  RH WIND       PRES   REMARKS
TUCSON         CLOUDY    46  41  82 SE13      29.85R
6HR MIN TEMP:  46; 6HR MAX TEMP:  56; 6HR PCP:  0.16;

DAVIS-MONTHAN  CLOUDY    44  41  89 S8        29.82F
6HR MIN TEMP:  44; 6HR MAX TEMP:  54; 6HR PCP:  0.17;

NOGALES        MOCLDY    43  37  79 CALM      29.84S
6HR MIN TEMP:  43; 6HR MAX TEMP:  58; 6HR PCP: TRACE;

SIERRA VISTA   CLOUDY    40  35  83 NW16      29.82S WCI  31
6HR MIN TEMP:  39; 6HR MAX TEMP:  54; 6HR PCP: TRACE;

DOUGLAS        RAIN      39  36  89 N17       29.82R FOG     WCI  30
6HR MIN TEMP:  41; 6HR MAX TEMP:  58; 6HR PCP: TRACE;

SAFFORD        CLOUDY    42  37  82 CALM      29.78R
6HR MIN TEMP:  41; 6HR MAX TEMP:  56; 6HR PCP:  0.09;

$$

AZZ020-021-025-026-031-260700-
SOUTHWEST ARIZONA

CITY           SKY/WX    TMP DP  RH WIND       PRES   REMARKS
YUMA           MOCLDY   N/A N/A N/A N7        29.89R
$$

CAZ031-033-041-043-047-048-061-260700-
SOUTHERN CALIFORNIA

CITY           SKY/WX    TMP DP  RH WIND       PRES   REMARKS
DOWNTOWN L.A.  CLEAR     53  22  29 VRB3      29.92R
6HR MIN TEMP:  53; 6HR MAX TEMP:  62;

L.A. AIRPORT   CLEAR     53  23  31 N9        29.93R
6HR MIN TEMP:  52; 6HR MAX TEMP:  62;

SAN DIEGO      CLEAR     55  41  59 NE3       29.92R
6HR MIN TEMP:  55; 6HR MAX TEMP:  64;

BURBANK        CLEAR     49  25  39 W8        29.94R
6HR MIN TEMP:  49; 6HR MAX TEMP:  60;

ONTARIO        CLEAR     56   8  14 NE13G25   29.90R
6HR MIN TEMP:  55; 6HR MAX TEMP:  62;

RIVERSIDE      CLEAR     53  20  27 NE8       29.93R
6HR MIN TEMP:  51; 6HR MAX TEMP:  60;

PALM SPRINGS   CLEAR     56   9  15 S3        29.94R
6HR MIN TEMP:  54; 6HR MAX TEMP:  64;

EL CENTRO NAS  CLEAR     48  19  31 SW5       29.91R
6HR MIN TEMP:  48; 6HR MAX TEMP:  63;

IMPERIAL       CLEAR     45  25  45 W7        29.91R
6HR MIN TEMP:  45; 6HR MAX TEMP:  64;

BLYTHE         CLEAR     49  14  24 NW5       29.90R
6HR MIN TEMP:  49; 6HR MAX TEMP:  61;

NEEDLES        CLEAR     50  11  20 NW9       29.89R
6HR MIN TEMP:  47; 6HR MAX TEMP:  58;

$$

NVZ020-UTZ003-260700-
SOUTHERN NEVADA-UTAH

CITY           SKY/WX    TMP DP  RH WIND       PRES   REMARKS
LAS VEGAS      PTCLDY    45  10  24 NW10G20   29.86R
6HR MIN TEMP:  45; 6HR MAX TEMP:  49;

SALT LAKE CITY CLOUDY    26  22  84 NW6       29.82R WCI  19
6HR MIN TEMP:  26; 6HR MAX TEMP:  30; 6HR PCP:  0.03;

$$

NMZ009-TXZ055-260700-
NEW MEXICO-WEST TEXAS

CITY           SKY/WX    TMP DP  RH WIND       PRES   REMARKS
ALBUQUERQUE    CLOUDY    39  25  57 S7        29.73R WCI  34
6HR MIN TEMP:  38; 6HR MAX TEMP:  49;

EL PASO        PTCLDY    54  22  28 SW14      29.76R
6HR MIN TEMP:  53; 6HR MAX TEMP:  65;

$$


........................KEY........................
SKY/WX - SKY CONDITION/WEATHER
TMP    - TEMPERATURE IN FAHRENHEIT
DP     - DEW POINT IN FAHRENHEIT
RH     - RELATIVE HUMIDITY IN PERCENT
WIND   - DIRECTION AND SPEED IN MILES PER HOUR (MPH)
VRB    - VARIABLE WIND DIRECTION
PRES   - MEAN SEA LEVEL PRESSURE IN INCHES OF MERCURY
         F - FALLING PRESSURE   R - RISING PRESSURE
         S - STEADY PRESSURE
VSB    - VISIBILITY IN MILES
HX     - HEAT INDEX IN FAHRENHEIT
WCI    - WIND CHILL INDEX IN FAHRENHEIT
TC     - TEMPERATURE IN CELSIUS WHICH IS ALSO KNOWN AS
         TEMPERATURE IN CENTIGRADE
AFB    - AIR FORCE BASE
         LUKE AFB IS LUKE AIR FORCE BASE
         DAVIS-MONTHAN IS DAVIS-MONTHAN AIR FORCE BASE
NAS    - NAVAL AIR STATION
         EL CENTRO NAS IS EL CENTRO NAVAL AIR STATION
N/A    - NOT AVAILABLE


USA.gov is the U.S. government's official web portal to all federal, state and local government web resources and services.